Harlan, IA

4:02 AM CST on December 15, 2019 (GMT -0600)
Harlan Municipal

Weather History for KHNR - October, 2019

Change the Weather History Date:

Saturday, October 19, 2019

  Actual Average Record
Temperature  
Mean Temperature 55 °F -  
Max Temperature 68 °F 59 °F 86 °F (2003)
Min Temperature 41 °F 35 °F 13 °F (1972)
Degree Days  
Heating Degree Days 10    
Growing Degree Days 5 (Base 50)    
Moisture  
Dew Point 42 °F    
Average Humidity 69    
Maximum Humidity 100    
Minimum Humidity 24    
Precipitation  
Precipitation 0.05 in - - ()
Sea Level Pressure  
Sea Level Pressure 29.75 in    
Wind  
Wind Speed 4 mph ()    
Max Wind Speed 10 mph    
Max Gust Speed 16 mph    
Visibility 9.4 miles    
Events Rain    
Averages and records for this station are not official NWS values.
T = Trace of Precipitation, MM = Missing Value Source: Averaged Metar Reports

Daily Weather History Graph

Daily Weather History Graph

Search for Another Location

Airport or City:

Astronomy

Oct. 19, 2019 Rise Set
Actual Time 7:37 AM CDT 6:34 PM CDT
Civil Twilight 7:09 AM CDT 7:02 PM CDT
Nautical Twilight 6:37 AM CDT 7:34 PM CDT
Astronomical Twilight 6:05 AM CDT 8:06 PM CDT
Moon 10:40 PM CDT (10/19) 1:14 PM CDT (10/19)
Length of Visible Light 11h 52m
Length of Day
10h 56m
Waning Gibbous, 69% of the Moon is Illuminated
Oct 19
Waning Gibbous
Oct 21
Last Quarter
Oct 27
New
Nov 4
First Quarter
Nov 12
Full

Hourly Weather History & Observations

Time (CDT) Temp. Windchill Dew Point Humidity Pressure Visibility Wind Dir Wind Speed Gust Speed Precip Events Conditions
12:15 AM 57.2 °F - 46.4 °F 67% 29.68 in 10.0 mi South 6.9 mph - N/A   Mostly Cloudy
12:35 AM 57.2 °F - 46.4 °F 67% 29.67 in 10.0 mi South 6.9 mph - N/A   Scattered Clouds
12:55 AM 53.6 °F - 46.4 °F 77% 29.68 in 8.0 mi WSW 5.8 mph - N/A   Mostly Cloudy
1:15 AM 55.4 °F - 46.4 °F 72% 29.67 in 10.0 mi South 3.5 mph - N/A   Overcast
1:35 AM 53.6 °F - 46.4 °F 77% 29.68 in 10.0 mi NW 5.8 mph - N/A   Overcast
1:55 AM 57.2 °F - 46.4 °F 67% 29.68 in 10.0 mi SW 4.6 mph - N/A   Overcast
2:15 AM 55.4 °F - 46.4 °F 72% 29.68 in 10.0 mi SSW 4.6 mph - N/A   Overcast
2:35 AM 55.4 °F - 48.2 °F 77% 29.69 in 10.0 mi Calm Calm - N/A   Overcast
2:55 AM 55.4 °F - 46.4 °F 72% 29.69 in 10.0 mi NNW 3.5 mph - N/A   Overcast
3:15 AM 53.6 °F - 48.2 °F 82% 29.71 in 10.0 mi West 6.9 mph - N/A   Overcast
3:35 AM 55.4 °F - 48.2 °F 77% 29.70 in 10.0 mi WNW 10.4 mph - N/A Rain Light Rain
3:55 AM 51.8 °F - 48.2 °F 88% 29.68 in 7.0 mi North 6.9 mph - 0.01 in Rain Light Rain
4:15 AM 51.8 °F - 48.2 °F 88% 29.69 in 9.0 mi NNW 6.9 mph - N/A Rain Light Rain
4:35 AM 50.0 °F - 48.2 °F 94% 29.69 in 8.0 mi North 8.1 mph 15.0 mph N/A Rain Light Rain
4:55 AM 50.0 °F - 48.2 °F 94% 29.68 in 10.0 mi North 5.8 mph - 0.04 in   Overcast
5:15 AM 50.0 °F - 48.2 °F 94% 29.69 in 10.0 mi NNE 5.8 mph - N/A   Overcast
5:35 AM 50.0 °F - 48.2 °F 94% 29.71 in 10.0 mi Calm Calm - N/A   Overcast
5:55 AM 50.0 °F - 48.2 °F 94% 29.73 in 10.0 mi Calm Calm - N/A   Overcast
6:15 AM 50.0 °F - 48.2 °F 94% 29.74 in 10.0 mi Calm Calm - N/A Rain Light Rain
6:35 AM 50.0 °F - 48.2 °F 94% 29.74 in 10.0 mi Calm Calm - N/A   Overcast
6:55 AM 50.0 °F - 48.2 °F 94% 29.75 in 10.0 mi NW 4.6 mph - N/A   Overcast
7:15 AM 48.2 °F - 48.2 °F 100% 29.75 in 10.0 mi NW 4.6 mph - N/A   Overcast
7:35 AM 50.0 °F - 48.2 °F 94% 29.75 in 10.0 mi Calm Calm - N/A   Overcast
7:55 AM 48.2 °F - 48.2 °F 100% 29.75 in 10.0 mi Calm Calm - N/A   Overcast
8:15 AM 48.2 °F - 48.2 °F 100% 29.76 in 10.0 mi Calm Calm - N/A   Overcast
8:35 AM 48.2 °F - 48.2 °F 100% 29.76 in 10.0 mi Calm Calm - N/A   Overcast
8:55 AM 50.0 °F - 50.0 °F 100% 29.77 in 10.0 mi WSW 3.5 mph - N/A   Overcast
9:15 AM 50.0 °F - 50.0 °F 100% 29.78 in 10.0 mi Calm Calm - N/A   Overcast
9:35 AM 50.0 °F - 48.2 °F 94% 29.79 in 10.0 mi WNW 5.8 mph - N/A   Overcast
9:55 AM 50.0 °F - 48.2 °F 94% 29.79 in 10.0 mi NW 6.9 mph - N/A   Mostly Cloudy
10:15 AM 53.6 °F - 48.2 °F 82% 29.79 in 10.0 mi NW 9.2 mph - N/A   Clear
10:35 AM 53.6 °F - 48.2 °F 82% 29.80 in 10.0 mi NW 5.8 mph - N/A   Clear
10:55 AM 55.4 °F - 46.4 °F 72% 29.80 in 10.0 mi NE 3.5 mph - N/A   Clear
11:55 AM 59.0 °F - 46.4 °F 63% 29.80 in 10.0 mi WNW 8.1 mph - N/A   Clear
12:15 PM 60.8 °F - 44.6 °F 55% 29.79 in 10.0 mi WNW 6.9 mph - N/A   Clear
12:35 PM 60.8 °F - 44.6 °F 55% 29.79 in 10.0 mi Variable 5.8 mph - N/A   Clear
12:55 PM 62.6 °F - 41.0 °F 45% 29.78 in 10.0 mi NNW 9.2 mph - N/A   Clear
1:15 PM 62.6 °F - 41.0 °F 45% 29.78 in 10.0 mi NNW 5.8 mph - N/A   Clear
1:35 PM 64.4 °F - 41.0 °F 42% 29.77 in 10.0 mi NW 10.4 mph - N/A   Clear
1:55 PM 64.4 °F - 39.2 °F 40% 29.76 in 10.0 mi NW 9.2 mph - N/A   Clear
2:15 PM 66.2 °F - 35.6 °F 32% 29.76 in 10.0 mi NNW 9.2 mph - N/A   Clear
2:35 PM 66.2 °F - 37.4 °F 35% 29.75 in 10.0 mi WNW 10.4 mph - N/A   Clear
2:55 PM 66.2 °F - 32.0 °F 28% 29.75 in 10.0 mi North 9.2 mph 16.1 mph N/A   Clear
3:15 PM 66.2 °F - 30.2 °F 26% 29.75 in 10.0 mi North 6.9 mph 15.0 mph N/A   Clear
3:35 PM 66.2 °F - 30.2 °F 26% 29.74 in 10.0 mi NNE 8.1 mph - N/A   Clear
3:55 PM 68.0 °F - 30.2 °F 24% 29.75 in 7.0 mi NNW 5.8 mph - N/A   Clear
4:15 PM 66.2 °F - 30.2 °F 26% 29.75 in 2.0 mi NW 4.6 mph 11.5 mph N/A   Haze
4:55 PM 66.2 °F - 30.2 °F 26% 29.74 in 2.5 mi WNW 3.5 mph - N/A   Haze
5:15 PM 66.2 °F - 30.2 °F 26% 29.75 in 1.2 mi Calm Calm - N/A   Haze
5:35 PM 64.4 °F - 32.0 °F 30% 29.75 in 7.0 mi NW 6.9 mph - N/A   Clear
5:55 PM 64.4 °F - 30.2 °F 28% 29.76 in 10.0 mi West 4.6 mph - N/A   Clear
6:15 PM 62.6 °F - 30.2 °F 30% 29.76 in 10.0 mi Calm Calm - N/A   Clear
6:35 PM 57.2 °F - 33.8 °F 41% 29.77 in 10.0 mi Calm Calm - N/A   Clear
6:55 PM 53.6 °F - 33.8 °F 47% 29.77 in 10.0 mi Calm Calm - N/A   Clear
7:15 PM 50.0 °F - 37.4 °F 62% 29.77 in 10.0 mi Calm Calm - N/A   Clear
7:35 PM 50.0 °F - 37.4 °F 62% 29.78 in 10.0 mi Calm Calm - N/A   Clear
7:55 PM 48.2 °F - 37.4 °F 66% 29.78 in 10.0 mi Calm Calm - N/A   Clear
8:15 PM 46.4 °F - 37.4 °F 71% 29.78 in 10.0 mi Calm Calm - N/A   Clear
8:35 PM 46.4 °F - 37.4 °F 71% 29.78 in 10.0 mi Calm Calm - N/A   Clear
8:55 PM 44.6 °F - 37.4 °F 76% 29.79 in 10.0 mi Calm Calm - N/A   Clear
9:15 PM 44.6 °F - 39.2 °F 81% 29.79 in 10.0 mi Calm Calm - N/A   Clear
9:35 PM 42.8 °F 41.1 °F 37.4 °F 81% 29.80 in 10.0 mi SSW 3.5 mph - N/A   Clear
9:55 PM 42.8 °F - 39.2 °F 87% 29.81 in 10.0 mi Calm Calm - N/A   Clear
10:15 PM 42.8 °F - 37.4 °F 81% 29.81 in 10.0 mi Calm Calm - N/A   Clear
10:35 PM 42.8 °F - 37.4 °F 81% 29.81 in 10.0 mi Calm Calm - N/A   Clear
10:55 PM 42.8 °F 40.1 °F 39.2 °F 87% 29.81 in 10.0 mi SSW 4.6 mph - N/A   Clear
11:15 PM 44.6 °F 43.1 °F 39.2 °F 81% 29.80 in 10.0 mi SSW 3.5 mph - N/A   Clear
11:35 PM 42.8 °F - 39.2 °F 87% 29.80 in 10.0 mi Calm Calm - N/A   Clear
11:55 PM 41.0 °F - 37.4 °F 87% 29.80 in 10.0 mi Calm Calm - N/A   Clear